Find Starlink 5646

NORAD ID: 55461 Int'l Des: 2023-015 Owner: SPXS Country: US Constellation: starlink operational
LEOCIRCULAR

当前视图

正在加载3D地球...

About Starlink 5646

Starlink 5646 (NORAD 55461) is a starlink constellation satellite (v1.5) launched Feb 2, 2023 by SPXS of US. It operates in LEO, CIRCULAR orbit with a mass of 305.00 kg.

即将过境

Passes for default location (London). Set your location on the main map for personalized predictions.

高度历史

Loading altitude history...

两行轨道根数

1 55461U 23015N 26265.77535186 -.00000228 00000-0 12272-5 0 9997
2 55461 43.0019 295.6967 0001302 272.1328 87.9375 15.27578578200865
Epoch: Sep 22, 2026 • Age: 12 hours

当前状态

高度 495.3 km
远地点 / 近地点 N/A
速度 7.62 km/s
星下点 -42.65°S, 88.91°E
发射日期 Feb 2, 2023
运行时间 3.6 years
类型 internet

技术详情

分类 Payload
质量 305.00 kg
干质量 290.00 kg
长度 0.20 m
跨度 9.00 m
形状 ? Box + pan
制造商 SPXS
平台类型 Starlink
阶段状态 In Orbit
所有者/国家 SPXS/US

Most Searched